User: anonymous   Login
Location: Poughquag
(41.6090°N, 73.6820°W)
Time: 02:00:58
(UTC-04:00)
Language:

Vanguard 3 - Orbit

View from above orbital plane
View from above orbital plane
View from above satellite
View from above satellite

Ground track
Ground track

The orbit data is extracted from the following two-line orbital elements,

1    20U 59007A   19286.52859753  .00000078  00000-0  37398-4 0  9992
2    20  33.3450 345.2764 1666319  31.5818 337.4768 11.55687927201946
Epoch (UTC): 13 October 2019 12:41:10
Eccentricity: 0.1666319
inclination: 33.3450°
perigee height: 508 km
apogee height: 3262 km
right ascension of ascending node: 345.2764°
argument of perigee: 31.5818°
revolutions per day: 11.55687927
mean anomaly at epoch: 337.4768°
orbit number at epoch: 20194

The dashed part of the orbit path shows where the satellite is in the earth's shadow,  

DLR